Regional Weather Roundup
Issued by NWS

Home | Current Version | Previous Version | Graphics & Text | Print | Product List | Glossary On
Versions: 1 2 3 4 5 6 7 8 9 10 11 12 13 14 15 16 17 18 19 20 21 22 23 24 25 26 27 28 29 30 31 32 33 34 35 36 37 38 39 40 41 42 43 44 45 46 47 48 49 50
000
ASUS43 KTOP 232208
RWRKS

WEATHER ROUNDUP FOR KANSAS
NATIONAL WEATHER SERVICE GOODLAND KS
500 PM CDT THU OCT 23 2014

NOTE:  "FAIR" INDICATES FEW OR NO CLOUDS BELOW 12,000 FEET WITH NO
SIGNIFICANT WEATHER AND/OR OBSTRUCTIONS TO VISIBILITY.

KSZ001>006-013>018-027>032-041>047-232300-
NORTHWEST KANSAS

CITY           SKY/WX    TMP DP  RH WIND       PRES   REMARKS
GOODLAND       MOSUNNY   74  47  38 S6        30.06S
HAYS           MOSUNNY   73  57  56 SE7       30.03F
HILL CITY      MOSUNNY   73  54  51 S9        30.03F
RUSSELL        PTSUNNY   74  55  51 S7        30.02S
$$

KSZ061>065-074>080-084>089-232300-
SOUTHWEST KANSAS

CITY           SKY/WX    TMP DP  RH WIND       PRES   REMARKS
DODGE CITY     SUNNY     75  56  51 SE9       30.05S
ELKHART          N/A     77  54  45 SE9         N/A
GARDEN CITY    SUNNY     74  55  51 SE8       30.05F
GREAT BEND     MOSUNNY   72  59  64 S8        30.03F
LIBERAL        SUNNY     79  55  44 S6        30.06S
PRATT          MOSUNNY   72  55  56 S7        30.05S
$$

KSZ066>073-081>083-090>101-232300-
SOUTHEAST KANSAS

CITY           SKY/WX    TMP DP  RH WIND       PRES   REMARKS
CHANUTE        CLOUDY    65  59  81 S8        30.07F
COFFEYVILLE    LGT RAIN  65  58  78 S10       30.07S
HUTCHINSON     PTSUNNY   74  59  59 S8        30.03F
MEDICINE LODGE   N/A     75  60  59 SE10      30.02F
NEWTON         CLOUDY    70  57  64 S7        30.07S
PARSONS        CLOUDY    65  59  81 SE7       30.09S
WICHITA INTL   CLOUDY    73  59  61 S7        30.03S
WICHITA JABRA  MOSUNNY   72  60  66 S5        30.04S
WICHITA MCCONL PTSUNNY   73  62  67 SE6       30.04F
WINFIELD       MOSUNNY   73  60  63 S7        30.05S
$$

KSZ007>012-019>026-033>040-048>060-102>105-232300-
NORTHEAST KANSAS

CITY           SKY/WX    TMP DP  RH WIND       PRES   REMARKS
CONCORDIA      MOSUNNY   73  56  54 SW6       30.02S
EMPORIA        MOSUNNY   69  60  73 CALM      30.04F
LAWRENCE       PTSUNNY   68  62  81 SW7       30.04F
MANHATTAN      SUNNY     76  57  51 CALM      30.01F
MARYSVILLE     SUNNY     73  54  49 CALM      30.01S
OLATHE IND     CLOUDY    65  61  87 S7        30.06F
OLATHE EXE     CLOUDY    65  60  84 SW7       30.05F
SALINA         MOSUNNY   74  58  57 S6        30.02S
TOPEKA BILLARD MOSUNNY   71  62  73 S8        30.03S
TOPEKA FORBES  MOSUNNY   70  61  73 S7        30.03F
$$



USA.gov is the U.S. government's official web portal to all federal, state and local government web resources and services.